TimeEDT,TemperatureF,Dew PointF,Humidity,Sea Level PressureIn,VisibilityMPH,Wind Direction,Wind SpeedMPH,Gust SpeedMPH,PrecipitationIn,Events,Conditions,WindDirDegrees,DateUTC
12:09 AM,69.8,68.0,94,30.06,1.8,Calm,Calm,-,0.08,Rain,Heavy Rain,0,2013-08-08 04:09:00
12:18 AM,69.8,68.0,94,30.06,3.0,Calm,Calm,-,0.09,Rain,Light Rain,0,2013-08-08 04:18:00
12:53 AM,69.1,68.0,96,30.04,4.0,Calm,Calm,-,0.12,Rain,Light Rain,0,2013-08-08 04:53:00
1:53 AM,69.1,68.0,96,30.04,7.0,Calm,Calm,-,0.01,,Overcast,0,2013-08-08 05:53:00
2:53 AM,69.1,68.0,96,30.03,7.0,Calm,Calm,-,N/A,,Mostly Cloudy,0,2013-08-08 06:53:00
3:05 AM,69.8,66.2,88,30.04,7.0,Calm,Calm,-,N/A,,Overcast,0,2013-08-08 07:05:00
3:22 AM,66.2,66.2,100,30.03,1.8,Calm,Calm,-,N/A,,Mostly Cloudy,0,2013-08-08 07:22:00
3:29 AM,68.0,66.2,94,30.03,1.0,Calm,Calm,-,N/A,,Mostly Cloudy,0,2013-08-08 07:29:00
3:34 AM,68.0,66.2,94,30.04,3.0,Calm,Calm,-,N/A,,Mostly Cloudy,0,2013-08-08 07:34:00
3:53 AM,68.0,66.9,96,30.03,6.0,Calm,Calm,-,N/A,,Overcast,0,2013-08-08 07:53:00
4:53 AM,69.1,68.0,96,30.02,6.0,Calm,Calm,-,N/A,,Overcast,0,2013-08-08 08:53:00
5:53 AM,69.1,68.0,96,30.03,8.0,Calm,Calm,-,N/A,,Overcast,0,2013-08-08 09:53:00
6:53 AM,69.1,68.0,96,30.04,5.0,Calm,Calm,-,N/A,,Overcast,0,2013-08-08 10:53:00
7:53 AM,70.0,68.0,93,30.05,7.0,Calm,Calm,-,N/A,,Overcast,0,2013-08-08 11:53:00
8:10 AM,71.6,69.8,94,30.05,8.0,SW,4.6,-,N/A,,Overcast,220,2013-08-08 12:10:00
8:28 AM,71.6,69.8,94,30.06,8.0,Calm,Calm,-,N/A,,Overcast,0,2013-08-08 12:28:00
8:53 AM,71.1,69.1,93,30.05,9.0,Calm,Calm,-,N/A,,Overcast,0,2013-08-08 12:53:00
9:53 AM,73.0,69.1,87,30.05,10.0,Variable,3.5,-,N/A,,Overcast,0,2013-08-08 13:53:00
10:01 AM,73.4,69.8,88,30.05,10.0,South,3.5,-,N/A,,Overcast,190,2013-08-08 14:01:00
10:26 AM,73.4,69.8,88,30.05,10.0,SSW,3.5,-,N/A,,Overcast,210,2013-08-08 14:26:00
10:53 AM,73.9,70.0,87,30.04,10.0,SSW,3.5,-,N/A,,Overcast,200,2013-08-08 14:53:00
11:53 AM,75.0,70.0,84,30.03,10.0,SSW,3.5,-,N/A,,Overcast,210,2013-08-08 15:53:00
12:53 PM,75.9,70.0,82,30.03,10.0,SSW,4.6,-,N/A,,Overcast,200,2013-08-08 16:53:00
1:33 PM,77.0,69.8,78,30.04,2.5,SSW,3.5,-,N/A,,Haze,200,2013-08-08 17:33:00
1:35 PM,77.0,69.8,78,30.04,3.0,Calm,Calm,-,N/A,,Haze,0,2013-08-08 17:35:00
1:42 PM,77.0,71.6,83,30.04,8.0,Calm,Calm,-,N/A,,Overcast,0,2013-08-08 17:42:00
1:53 PM,77.0,71.1,82,30.04,10.0,Calm,Calm,-,N/A,,Overcast,0,2013-08-08 17:53:00
2:33 PM,77.0,71.6,83,30.04,9.0,Calm,Calm,-,N/A,,Overcast,0,2013-08-08 18:33:00
2:53 PM,78.1,71.1,79,30.03,10.0,Calm,Calm,-,N/A,,Mostly Cloudy,0,2013-08-08 18:53:00
3:53 PM,80.1,72.0,76,30.01,10.0,SW,3.5,-,N/A,,Overcast,220,2013-08-08 19:53:00
4:53 PM,78.1,72.0,81,30.00,10.0,Variable,3.5,-,0.00,,Overcast,0,2013-08-08 20:53:00
5:53 PM,78.1,71.1,79,30.00,10.0,Calm,Calm,-,N/A,,Mostly Cloudy,0,2013-08-08 21:53:00
6:45 PM,77.0,71.6,83,30.01,10.0,SSE,6.9,-,N/A,Thunderstorm,Mostly Cloudy,160,2013-08-08 22:45:00
6:53 PM,77.0,72.0,84,30.00,10.0,Variable,6.9,-,N/A,Thunderstorm,Mostly Cloudy,0,2013-08-08 22:53:00
6:58 PM,75.2,71.6,89,30.01,10.0,SSW,4.6,-,N/A,Thunderstorm,Mostly Cloudy,200,2013-08-08 22:58:00
7:20 PM,73.4,69.8,88,30.01,2.5,South,5.8,-,0.06,Rain-Thunderstorm,Light Thunderstorms and Rain,190,2013-08-08 23:20:00
7:24 PM,73.4,71.6,94,30.02,3.0,SW,4.6,-,0.07,Rain,Light Rain,220,2013-08-08 23:24:00
7:26 PM,73.4,71.6,94,30.02,1.8,Calm,Calm,-,0.09,Rain,Light Rain,0,2013-08-08 23:26:00
7:35 PM,73.4,71.6,94,30.03,2.0,West,3.5,-,0.11,Rain-Thunderstorm,Light Thunderstorms and Rain,280,2013-08-08 23:35:00
7:40 PM,73.4,69.8,88,30.02,1.8,Variable,3.5,-,0.14,Rain-Thunderstorm,Thunderstorms and Rain,0,2013-08-08 23:40:00
7:46 PM,73.4,69.8,88,30.02,2.0,Calm,Calm,-,0.15,Rain-Thunderstorm,Light Thunderstorms and Rain,0,2013-08-08 23:46:00
7:53 PM,72.0,71.1,97,30.01,7.0,Calm,Calm,-,0.15,Rain,Light Rain,0,2013-08-08 23:53:00
8:19 PM,71.6,71.6,100,30.02,8.0,West,4.6,-,0.01,Thunderstorm,Overcast,260,2013-08-09 00:19:00
8:53 PM,72.0,70.0,93,30.02,9.0,West,3.5,-,0.02,,Mostly Cloudy,260,2013-08-09 00:53:00
9:53 PM,71.1,70.0,96,30.02,5.0,Calm,Calm,-,N/A,,Clear,0,2013-08-09 01:53:00
10:53 PM,70.0,70.0,100,30.01,4.0,Calm,Calm,-,N/A,,Mostly Cloudy,0,2013-08-09 02:53:00
11:03 PM,69.8,69.8,100,30.02,4.0,Calm,Calm,-,N/A,,Scattered Clouds,0,2013-08-09 03:03:00
11:53 PM,70.0,70.0,100,30.01,3.0,Calm,Calm,-,0.02,Rain,Light Rain,0,2013-08-09 03:53:00